Tracking 33723 objects as of 10-Apr-2026
HD Live streaming from Space Station
objects crossing your sky now

CZ-6A DEB

Track CZ-6A DEB now!
10-day predictions


NORAD ID: 55900
Int'l Code: 2022-151AAY
Perigee: 801.8 km
Apogee: 854.7 km
Inclination: 98.8 °
Period: 101.3 minutes
Semi major axis: 7199 km
RCS: Unknown
Launch date: November 11, 2022
Source: People's Republic of China (PRC)
Launch site: Taiyaun Space Center, China (TSC)

Note: This is SATELLITE DEBRIS
Your satellite tracking list
Your tracking list is empty




NASA's NSSDC Master Catalog

Two Line Element Set (TLE):
1 55900U 22151AAY 26098.46492354  .00001325  00000-0  62412-3 0  9991
2 55900  98.7690 109.2420 0036783 173.7605 186.4037 14.21253515169727
Source of the keplerian elements: AFSPC